Regional Weather Roundup
Issued by NWS Charleston, WV

Home | Current Version | Previous Version | Graphics & Text | Print | Product List | Glossary On
Versions: 1 2 3 4 5 6 7 8 9 10 11 12 13 14 15 16 17 18 19 20 21 22 23 24 25 26 27 28 29 30 31 32 33 34 35 36 37 38 39 40 41 42 43 44 45 46 47 48 49 50
000
ASUS41 KRLX 311010
RWRRLX
West Virginia Regional Weather Roundup
National Weather Service Charleston WV
500 AM EST SAT JAN 31 2015

Note: "fair" indicates few or no clouds below 12,000 feet with no
significant weather and/or obstructions to visibility.

WVZ003-311100-
Northern Panhandle of West Virginia

CITY           SKY/WX    TMP DP  RH WIND       PRES   REMARKS
WHEELING       PTCLDY     7   3  84 S6        30.34F WCI  -3
$$

WVZ009-311100-
Northwest West Virginia

CITY           SKY/WX    TMP DP  RH WIND       PRES   REMARKS
PARKERSBURG    CLEAR      9   5  84 CALM      30.42F
$$

WVZ006-311100-
Western West Virginia

CITY           SKY/WX    TMP DP  RH WIND       PRES   REMARKS
HUNTINGTON     CLEAR     14  12  92 E3        30.40F
$$

WVZ015-311100-
West Central West Virginia

CITY           SKY/WX    TMP DP  RH WIND       PRES   REMARKS
CHARLESTON     CLEAR     15  12  88 CALM      30.40S
$$

WVZ022-031-311100-
North Central West Virginia

CITY           SKY/WX    TMP DP  RH WIND       PRES   REMARKS
CLARKSBURG     CLEAR      9   5  84 CALM      30.35F
MORGANTOWN     CLEAR      8   2  76 S3        30.35F
$$

WVZ025-035-042-045-311100-
Southern West Virginia

CITY           SKY/WX    TMP DP  RH WIND       PRES   REMARKS
BECKLEY        CLEAR     10   6  84 W5        30.27F WCI   2
LOGAN            N/A     16  14  93 CALM      30.34S
BLUEFIELD      CLEAR     13   8  81 W6        30.25F WCI   4
LEWISBURG      CLEAR     15   8  71 SE5       30.25F WCI   8
$$

WVZ047-311100-
Northern Mountains of West Virginia

CITY           SKY/WX    TMP DP  RH WIND       PRES   REMARKS
ELKINS         CLEAR      2  -1  88 CALM      30.30F
$$

WVZ052-311100-
Eastern Panhandle of West Virginia

CITY           SKY/WX    TMP DP  RH WIND       PRES   REMARKS
MARTINSBURG    CLEAR     17   2  51 NW14      30.30S WCI   3
PETERSBURG     CLEAR     17  -3  41 NE5       30.30F WCI  10
$$


USA.gov is the U.S. government's official web portal to all federal, state and local government web resources and services.